| time (UTC) | temp F | wind direction | speed MPH | gust MPH | rain 1hr in | rain 24hr in | rain mn in | humidity % | barometer mb |
| 20260505102053 | 52 | 40 | 6.0 | 10.0 | 0.00 | 0.09 | 0.09 | 99 | 1010.2 |
| 20260505101056 | 51 | 27 | 5.0 | 12.0 | 0.00 | 0.09 | 0.09 | 99 | 1010.2 |
| 20260505100053 | 51 | 24 | 6.0 | 10.0 | 0.01 | 0.09 | 0.09 | 99 | 1010.2 |
| 20260505095040 | 51 | 37 | 7.0 | 10.0 | 0.01 | 0.09 | 0.09 | 99 | 1010.3 |
| 20260505093039 | 51 | 32 | 7.0 | 12.0 | 0.01 | 0.09 | 0.09 | 98 | 1010.2 |
| 20260505092055 | 51 | 32 | 8.0 | 14.0 | 0.01 | 0.09 | 0.09 | 98 | 1010.2 |
| 20260505091043 | 51 | 23 | 7.0 | 11.0 | 0.01 | 0.09 | 0.09 | 98 | 1010.2 |
| 20260505085055 | 51 | 2 | 7.0 | 12.0 | 0.00 | 0.09 | 0.08 | 98 | 1010.3 |
| 20260505084055 | 51 | 21 | 6.0 | 10.0 | 0.00 | 0.09 | 0.08 | 98 | 1010.3 |
| 20260505083058 | 51 | 12 | 8.0 | 12.0 | 0.00 | 0.09 | 0.08 | 98 | 1010.3 |
| 20260505081056 | 52 | 4 | 5.0 | 10.0 | 0.00 | 0.09 | 0.08 | 98 | 1010.4 |
| 20260505080056 | 52 | 38 | 6.0 | 10.0 | 0.00 | 0.09 | 0.08 | 98 | 1010.4 |
| 20260505075053 | 52 | 36 | 5.0 | 10.0 | 0.00 | 0.09 | 0.08 | 98 | 1010.4 |
| 20260505074052 | 52 | 18 | 5.0 | 9.0 | 0.00 | 0.09 | 0.08 | 98 | 1010.4 |
| 20260505073055 | 52 | 13 | 6.0 | 11.0 | 0.00 | 0.09 | 0.08 | 98 | 1010.4 |
| 20260505072055 | 52 | 28 | 6.0 | 9.0 | 0.00 | 0.09 | 0.08 | 98 | 1010.4 |
| 20260505071057 | 52 | 21 | 5.0 | 8.0 | 0.00 | 0.09 | 0.08 | 98 | 1010.4 |
| 20260505070047 | 52 | 13 | 4.0 | 7.0 | 0.00 | 0.09 | 0.08 | 98 | 1010.4 |
| 20260505063054 | 52 | 20 | 5.0 | 9.0 | 0.01 | 0.09 | 0.08 | 98 | 1010.4 |
| 20260505062051 | 52 | 8 | 7.0 | 12.0 | 0.02 | 0.09 | 0.08 | 98 | 1010.4 |
| 20260505061054 | 52 | 357 | 6.0 | 9.0 | 0.02 | 0.09 | 0.08 | 98 | 1010.4 |
| 20260505060054 | 53 | 5 | 5.0 | 8.0 | 0.02 | 0.09 | 0.08 | 98 | 1010.5 |
| 20260505055044 | 53 | 24 | 4.0 | 7.0 | 0.04 | 0.09 | 0.08 | 98 | 1010.5 |
| 20260505054058 | 53 | 18 | 4.0 | 7.0 | 0.04 | 0.08 | 0.07 | 98 | 1010.5 |
| 20260505053055 | 53 | 6 | 4.0 | 7.0 | 0.06 | 0.08 | 0.07 | 98 | 1010.5 |
| 20260505052054 | 53 | 348 | 4.0 | 5.0 | 0.06 | 0.08 | 0.07 | 98 | 1010.5 |
| 20260505051058 | 52 | 348 | 4.0 | 5.0 | 0.06 | 0.07 | 0.06 | 98 | 1010.4 |
| 20260505041055 | 52 | 326 | 0.0 | 0.0 | 0.01 | 0.02 | 0.01 | 97 | 1010.6 |
| 20260505040054 | 52 | 314 | 2.0 | 3.0 | 0.01 | 0.02 | 0.01 | 97 | 1010.6 |
| 20260505035058 | 52 | 298 | 0.0 | 0.0 | 0.00 | 0.01 | 0.00 | 97 | 1010.7 |
| 20260505034056 | 52 | 307 | 0.0 | 0.0 | 0.00 | 0.01 | 0.00 | 97 | 1010.6 |
| 20260505033058 | 52 | 198 | 1.0 | 3.0 | 0.00 | 0.01 | 0.00 | 97 | 1010.7 |
| 20260505032056 | 52 | 207 | 1.0 | 3.0 | 0.00 | 0.01 | 0.00 | 97 | 1010.7 |
| 20260505031056 | 52 | 207 | 1.0 | 3.0 | 0.00 | 0.01 | 0.00 | 97 | 1010.9 |
| 20260505030055 | 52 | 231 | 2.0 | 4.0 | 0.00 | 0.01 | 0.00 | 97 | 1011.0 |
| 20260505025055 | 52 | 209 | 1.0 | 3.0 | 0.00 | 0.01 | 0.00 | 97 | 1011.1 |
| 20260505024058 | 51 | 174 | 2.0 | 3.0 | 0.00 | 0.01 | 0.00 | 97 | 1011.1 |
| 20260505023059 | 51 | 125 | 4.0 | 6.0 | 0.00 | 0.01 | 0.00 | 97 | 1011.2 |
| 20260505022031 | 51 | 116 | 4.0 | 4.0 | 0.00 | 0.01 | 0.00 | 97 | 1011.2 |
| 20260505021058 | 52 | 143 | 2.0 | 4.0 | 0.00 | 0.01 | 0.00 | 97 | 1011.2 |
| 20260505020059 | 52 | 148 | 0.0 | 0.0 | 0.00 | 0.01 | 0.00 | 97 | 1011.1 |
| 20260505014056 | 52 | 354 | 0.0 | 0.0 | 0.00 | 0.01 | 0.00 | 97 | 1011.2 |
| 20260505012056 | 52 | 281 | 0.0 | 0.0 | 0.00 | 0.01 | 0.00 | 97 | 1011.1 |
| 20260505010055 | 52 | 43 | 0.0 | 0.0 | 0.00 | 0.01 | 0.00 | 97 | 1011.3 |
| 20260505005100 | 52 | 123 | 1.0 | 3.0 | 0.00 | 0.01 | 0.00 | 97 | 1011.4 |
| 20260505004056 | 52 | 194 | 2.0 | 3.0 | 0.00 | 0.01 | 0.00 | 97 | 1011.5 |
| 20260505003058 | 52 | 236 | 2.0 | 4.0 | 0.00 | 0.01 | 0.00 | 97 | 1011.6 |
| 20260505002055 | 52 | 246 | 2.0 | 4.0 | 0.00 | 0.01 | 0.00 | 97 | 1011.7 |
| 20260505000105 | 51 | 27 | 0.0 | 0.0 | 0.00 | 0.01 | 0.00 | 97 | 1011.8 |
| 20260504234107 | 51 | 110 | 3.0 | 3.0 | 0.00 | 0.01 | 0.00 | 97 | 1012.0 |
| 20260504233107 | 51 | 114 | 3.0 | 4.0 | 0.00 | 0.01 | 0.00 | 96 | 1012.0 |
| 20260504232108 | 51 | 130 | 3.0 | 4.0 | 0.00 | 0.01 | 0.00 | 96 | 1012.0 |
| 20260504231107 | 51 | 151 | 3.0 | 4.0 | 0.00 | 0.01 | 0.00 | 95 | 1012.2 |
| 20260504230105 | 52 | 111 | 1.0 | 3.0 | 0.00 | 0.01 | 0.00 | 95 | 1012.2 |
| 20260504225109 | 52 | 36 | 0.0 | 0.0 | 0.00 | 0.01 | 0.00 | 95 | 1012.3 |
| 20260504224109 | 52 | 305 | 0.0 | 0.0 | 0.00 | 0.01 | 0.00 | 95 | 1012.4 |
| 20260504223107 | 52 | 311 | 0.0 | 0.0 | 0.00 | 0.01 | 0.00 | 95 | 1012.5 |
| 20260504222109 | 52 | 322 | 0.0 | 0.0 | 0.00 | 0.01 | 0.00 | 95 | 1012.6 |
| 20260504221109 | 53 | 262 | 0.0 | 0.0 | 0.00 | 0.01 | 0.00 | 95 | 1012.6 |
| 20260504215113 | 53 | 168 | 1.0 | 3.0 | 0.00 | 0.01 | 0.01 | 95 | 1012.7 |
| 20260504214114 | 53 | 162 | 0.0 | 0.0 | 0.00 | 0.01 | 0.01 | 94 | 1012.8 |
| 20260504213114 | 53 | 163 | 0.0 | 0.0 | 0.00 | 0.01 | 0.01 | 94 | 1012.8 |
| 20260504212114 | 53 | 190 | 1.0 | 3.0 | 0.00 | 0.01 | 0.01 | 94 | 1012.9 |
| 20260504211114 | 53 | 210 | 0.0 | 0.0 | 0.00 | 0.01 | 0.01 | 94 | 1013.0 |
| 20260504210115 | 53 | 206 | 1.0 | 4.0 | 0.00 | 0.01 | 0.01 | 94 | 1013.0 |
| 20260504205113 | 53 | 199 | 1.0 | 3.0 | 0.00 | 0.01 | 0.01 | 94 | 1013.1 |
| 20260504204114 | 53 | 144 | 0.0 | 0.0 | 0.00 | 0.01 | 0.01 | 94 | 1013.1 |
| 20260504201121 | 53 | 141 | 4.0 | 5.0 | 0.00 | 0.01 | 0.01 | 94 | 1013.1 |
| 20260504200114 | 53 | 136 | 5.0 | 6.0 | 0.00 | 0.01 | 0.01 | 93 | 1013.0 |
| 20260504195114 | 53 | 119 | 3.0 | 5.0 | 0.00 | 0.01 | 0.01 | 93 | 1012.9 |
| 20260504194111 | 53 | 129 | 3.0 | 4.0 | 0.00 | 0.01 | 0.01 | 93 | 1012.9 |
| 20260504192114 | 54 | 152 | 2.0 | 3.0 | 0.00 | 0.01 | 0.01 | 93 | 1012.7 |
| 20260504190112 | 54 | 150 | 4.0 | 5.0 | 0.00 | 0.01 | 0.01 | 92 | 1012.6 |
| 20260504184108 | 55 | 153 | 4.0 | 6.0 | 0.00 | 0.01 | 0.01 | 90 | 1012.5 |
| 20260504183109 | 56 | 145 | 4.0 | 6.0 | 0.00 | 0.01 | 0.01 | 89 | 1012.5 |
| 20260504182107 | 56 | 163 | 3.0 | 6.0 | 0.00 | 0.01 | 0.01 | 88 | 1012.5 |
| 20260504181110 | 56 | 165 | 3.0 | 6.0 | 0.00 | 0.01 | 0.01 | 88 | 1012.5 |
| 20260504180109 | 57 | 143 | 5.0 | 10.0 | 0.00 | 0.01 | 0.01 | 89 | 1012.6 |
| 20260504175108 | 57 | 161 | 5.0 | 10.0 | 0.00 | 0.01 | 0.01 | 89 | 1012.6 |
| 20260504174106 | 57 | 157 | 6.0 | 10.0 | 0.00 | 0.01 | 0.01 | 90 | 1012.4 |
| 20260504173109 | 57 | 148 | 6.0 | 11.0 | 0.00 | 0.01 | 0.01 | 91 | 1012.4 |
| 20260504172105 | 57 | 143 | 6.0 | 10.0 | 0.00 | 0.01 | 0.01 | 91 | 1012.5 |
| 20260504171106 | 57 | 135 | 6.0 | 8.0 | 0.00 | 0.01 | 0.01 | 91 | 1012.5 |
| 20260504160105 | 58 | 158 | 7.0 | 12.0 | 0.00 | 0.01 | 0.01 | 90 | 1012.9 |
| 20260504141103 | 60 | 123 | 3.0 | 6.0 | 0.00 | 0.00 | 0.00 | 86 | 1013.2 |
| 20260504140113 | 59 | 29 | 0.0 | 0.0 | 0.00 | 0.00 | 0.00 | 86 | 1013.3 |